Вернуться в каталог

TIANQI 31

АктивенСвязьLEO
NORAD 61197·PAYLOAD·🇨🇳 China

Запущен Sep 20, 2024 с Xichang Satellite Launch Center

Loading…

Ближайшие Пролёты (ближайшие 24 часа)

TLE

СвежийSource: Space-Track

Эпоха: Sep 14, 2026, 15:19 UTC

1 61197U 24170C   26257.63846830  .00000002  00000-0  91245-4 0  9995
2 61197  44.8613  99.3951 0008219 139.4251 220.7193 13.97726910101464

Отслеживайте TIANQI 31 в реальном времени с AllMySat

Download on the App Store